Tracking 35237 objects as of 6-Sep-2026
HD Live streaming from Space Station
objects crossing your sky now

COSMOS 1408 DEB


COSMOS 1408 DEB is no longer on orbit


NORAD ID: 50946
Int'l Code: 1982-092AWR
Launch date: September 16, 1982
Source: Commonwealth of Independent States (former USSR) (CIS)
Launch site: PLESETSK MISSILE AND SPACE COMPLEX (PKMTR)
Decay date: 2022-04-03

Note: This is SATELLITE DEBRIS
Your satellite tracking list
Your tracking list is empty




NASA's NSSDC Master Catalog

Two Line Element Set (TLE):
1 50946U 82092AWR 22093.12823193  .08974776  20169+0  30022-1 0  9993
2 50946  82.5689 346.8245 0009682 259.6589 100.3597 15.97622393 14664
Source of the keplerian elements: AFSPC